Location: *
(32.8667°N, 13.1833°E)
Time: 06:44:06
(UTC+00:00)

Cosmos 921 Rocket - Pass Details

Date: 18 July 2019
Orbit: 572 x 632 km, 75.8° (Epoch: 20 August)

Event Time Altitude Azimuth Distance (km) Brightness Sun altitude
Rises 20:42:06 0° 339° (NNW) 2,815 7.6 -25.2°
Reaches altitude 10° 20:44:20 10° 335° (NNW) 1,920 6.6 -25.5°
Enters shadow 20:48:18 53° 270° (W) 736 3.5 -26.0°
